Date String (YYYY-MM-DD hh:mm:ss) UTC,Instrument flags,Ambient pressure (hPa),Sample flow (lpm),Bypass flow (lpm),Sample temperature (°C),Ambient temperature (°C),ASC tube jacket temperature (°C),LED temperature (°C),Box temperature (°C),Sample RH (%),Span deviation,Mass concentration (μg/m³),Mass concentration (μg/m³),Mass concentration (μg/m³)
DateTimeUTC,F1_M11,P_M11,Q1_M11,Q2_M11,T1_M11,T2_M11,T3_M11,T4_M11,T5_M11,U1_M11,ZSPAN_M11,X2_M11,X0_M11,X1_M11
2022-01-11 04:00:00,,0833.8,4.98,0.00,26.5,25.6,00.0,35.5,28.3,06.6,0000.0,0005.44,0015.33,0004.33
2022-01-11 04:01:00,,0833.8,5.01,0.00,26.5,25.6,00.0,35.5,28.2,06.4,0000.0,0005.34,0015.73,0004.23
2022-01-11 04:02:00,,0833.8,4.99,0.00,26.5,25.6,00.0,35.5,28.2,06.4,0000.0,0005.18,0016.02,0004.08
2022-01-11 04:03:00,,0833.8,5.01,0.00,26.5,25.6,00.0,35.5,28.2,06.4,0000.0,0005.00,0015.88,0003.91
2022-01-11 04:04:00,,0833.8,4.99,0.00,26.5,25.6,00.0,35.5,28.2,06.3,0000.0,0004.89,0016.40,0003.79
2022-01-11 04:05:00,,0833.8,5.00,0.00,26.5,25.6,00.0,35.5,28.2,06.3,0000.0,0004.86,0016.44,0003.80
2022-01-11 04:06:00,,0833.8,4.99,0.00,26.5,25.6,00.0,35.5,28.2,06.2,0000.0,0004.69,0015.62,0003.73
2022-01-11 04:07:00,,0833.8,5.01,0.00,26.5,25.6,00.0,35.5,28.2,06.3,0000.0,0004.50,0015.13,0003.63
2022-01-11 04:08:00,,0833.8,4.99,0.00,26.4,25.6,00.0,35.5,28.2,06.3,0000.0,0004.41,0014.18,0003.57
2022-01-11 04:09:00,,0833.9,5.00,0.00,26.4,25.6,00.0,35.5,28.1,06.3,0000.0,0004.39,0014.17,0003.56
2022-01-11 04:10:00,,0833.8,5.00,0.00,26.4,25.5,00.0,35.4,28.1,06.4,0000.0,0004.35,0014.07,0003.52
2022-01-11 04:11:00,,0833.8,5.00,0.00,26.3,25.5,00.0,35.4,28.0,06.3,0000.0,0004.27,0014.00,0003.44
2022-01-11 04:12:00,,0833.8,4.99,0.00,26.3,25.4,00.0,35.4,27.9,06.3,0000.0,0004.20,0013.78,0003.39
2022-01-11 04:13:00,,0833.8,5.01,0.00,26.2,25.3,00.0,35.4,27.9,06.6,0000.0,0004.21,0013.27,0003.39
2022-01-11 04:14:00,,0833.7,4.99,0.00,26.2,25.2,00.0,35.4,27.8,06.8,0000.0,0004.37,0014.09,0003.50
2022-01-11 04:15:00,,0833.7,5.00,0.00,26.1,25.2,00.0,35.3,27.8,06.8,0000.0,0004.54,0014.20,0003.62
2022-01-11 04:16:00,,0833.8,5.01,0.00,26.1,25.2,00.0,35.3,27.8,06.7,0000.0,0004.66,0015.61,0003.72
2022-01-11 04:17:00,,0833.8,4.99,0.00,26.1,25.2,00.0,35.3,27.8,06.7,0000.0,0004.82,0015.57,0003.79
2022-01-11 04:18:00,,0833.7,5.01,0.00,26.1,25.2,00.0,35.3,27.7,06.8,0000.0,0004.99,0015.69,0003.88
2022-01-11 04:19:00,,0833.7,4.99,0.00,26.0,25.1,00.0,35.2,27.7,06.8,0000.0,0005.08,0015.87,0003.97
2022-01-11 04:20:00,,0833.7,5.01,0.00,26.0,25.1,00.0,35.2,27.7,06.8,0000.0,0005.24,0016.02,0004.07
2022-01-11 04:21:00,,0833.7,4.99,0.00,26.0,25.1,00.0,35.2,27.6,06.8,0000.0,0005.36,0016.37,0004.16
2022-01-11 04:22:00,,0833.6,5.00,0.00,25.9,25.0,00.0,35.2,27.6,06.9,0000.0,0005.46,0017.07,0004.25
2022-01-11 04:23:00,,0833.7,5.01,0.00,25.9,25.0,00.0,35.1,27.5,06.9,0000.0,0005.55,0017.00,0004.31
2022-01-11 04:24:00,,0833.6,4.98,0.00,25.9,24.9,00.0,35.1,27.5,06.9,0000.0,0005.57,0016.88,0004.34
2022-01-11 04:25:00,,0833.7,5.02,0.00,25.8,24.9,00.0,35.1,27.5,06.9,0000.0,0005.43,0016.36,0004.25
2022-01-11 04:26:00,,0833.6,4.98,0.00,25.8,24.9,00.0,35.1,27.5,07.0,0000.0,0005.27,0015.35,0004.18
2022-01-11 04:27:00,,0833.7,5.01,0.00,25.8,25.0,00.0,35.0,27.5,07.0,0000.0,0005.16,0013.57,0004.12
2022-01-11 04:28:00,,0833.6,4.99,0.00,25.8,25.0,00.0,35.0,27.6,06.9,0000.0,0005.10,0013.19,0004.09
2022-01-11 04:29:00,,0833.6,5.02,0.00,25.8,25.0,00.0,35.0,27.6,06.8,0000.0,0004.95,0012.92,0004.02
2022-01-11 04:30:00,,0833.6,4.99,0.00,25.8,25.0,00.0,35.0,27.6,06.7,0000.0,0004.80,0012.56,0003.95
2022-01-11 04:31:00,,0833.6,5.01,0.00,25.8,25.0,00.0,35.0,27.5,06.6,0000.0,0004.66,0012.29,0003.87
2022-01-11 04:32:00,,0833.6,4.99,0.00,25.8,25.0,00.0,35.0,27.5,06.6,0000.0,0004.55,0012.85,0003.79
2022-01-11 04:33:00,,0833.6,5.01,0.00,25.8,25.0,00.0,34.9,27.5,06.5,0000.0,0004.45,0012.09,0003.74
2022-01-11 04:34:00,,0833.6,4.99,0.00,25.8,25.0,00.0,34.9,27.6,06.4,0000.0,0004.40,0012.44,0003.72
2022-01-11 04:35:00,,0833.6,5.00,0.00,25.8,25.0,00.0,34.9,27.6,06.5,0000.0,0004.35,0012.69,0003.69
2022-01-11 04:36:00,,0833.6,5.02,0.00,25.8,25.0,00.0,34.9,27.6,06.5,0000.0,0004.29,0012.29,0003.65
2022-01-11 04:37:00,,0833.5,4.99,0.00,25.8,25.0,00.0,34.9,27.6,06.5,0000.0,0004.26,0012.34,0003.60
2022-01-11 04:38:00,,0833.6,4.99,0.00,25.8,25.0,00.0,34.9,27.6,06.5,0000.0,0004.22,0012.06,0003.58
2022-01-11 04:39:00,,0833.6,5.01,0.00,25.8,25.0,00.0,34.9,27.6,06.5,0000.0,0004.17,0011.62,0003.59
2022-01-11 04:40:00,,0833.6,5.00,0.00,25.8,25.0,00.0,34.9,27.5,06.5,0000.0,0004.21,0011.28,0003.62
2022-01-11 04:41:00,,0833.6,4.99,0.00,25.8,25.0,00.0,34.9,27.5,06.5,0000.0,0004.23,0010.89,0003.65
2022-01-11 04:42:00,,0833.6,5.00,0.00,25.7,24.9,00.0,34.8,27.4,06.5,0000.0,0004.28,0010.53,0003.69
2022-01-11 04:43:00,,0833.6,5.00,0.00,25.7,24.8,00.0,34.8,27.4,06.5,0000.0,0004.31,0009.61,0003.73
2022-01-11 04:44:00,,0833.5,5.00,0.00,25.6,24.8,00.0,34.8,27.4,06.5,0000.0,0004.36,0009.56,0003.76
2022-01-11 04:45:00,,0833.5,5.00,0.00,25.6,24.8,00.0,34.8,27.4,06.5,0000.0,0004.39,0009.28,0003.80
2022-01-11 04:46:00,,0833.5,5.00,0.00,25.6,24.8,00.0,34.8,27.4,06.6,0000.0,0004.43,0009.19,0003.84
2022-01-11 04:47:00,,0833.5,5.00,0.00,25.7,24.8,00.0,34.7,27.4,06.6,0000.0,0004.48,0009.29,0003.89
2022-01-11 04:48:00,,0833.6,4.99,0.00,25.7,24.8,00.0,34.7,27.4,06.6,0000.0,0004.55,0009.32,0003.96
2022-01-11 04:49:00,,0833.6,5.01,0.00,25.7,24.9,00.0,34.7,27.5,06.5,0000.0,0004.57,0009.36,0004.00
2022-01-11 04:50:00,,0833.5,4.99,0.00,25.7,24.9,00.0,34.7,27.5,06.4,0000.0,0004.60,0010.00,0003.99
2022-01-11 04:51:00,,0833.4,5.01,0.00,25.7,24.9,00.0,34.7,27.5,06.4,0000.0,0004.59,0010.61,0003.96
2022-01-11 04:52:00,,0833.5,5.00,0.00,25.7,24.9,00.0,34.7,27.5,06.5,0000.0,0004.60,0011.21,0003.95
2022-01-11 04:53:00,,0833.5,5.00,0.00,25.7,24.9,00.0,34.7,27.5,06.6,0000.0,0004.64,0011.85,0003.98
2022-01-11 04:54:00,,0833.5,5.00,0.00,25.7,24.9,00.0,34.7,27.4,06.6,0000.0,0004.66,0012.75,0003.99
2022-01-11 04:55:00,,0833.5,5.01,0.00,25.7,24.9,00.0,34.7,27.4,06.6,0000.0,0004.69,0013.38,0003.99
2022-01-11 04:56:00,,0833.6,4.98,0.00,25.6,24.8,00.0,34.7,27.3,06.6,0000.0,0004.71,0013.55,0003.99
2022-01-11 04:57:00,,0833.5,5.02,0.00,25.6,24.7,00.0,34.7,27.2,06.7,0000.0,0004.68,0013.01,0003.97
2022-01-11 04:58:00,,0833.5,4.99,0.00,25.5,24.6,00.0,34.7,27.1,06.8,0000.0,0004.66,0012.86,0003.95
2022-01-11 04:59:00,,0833.4,5.02,0.00,25.4,24.5,00.0,34.6,27.1,06.8,0000.0,0004.65,0012.87,0003.95
